Location: Newark
(48.9886°N, 1.2358°E)
Time: 20:37:31
(UTC+00:00)

Transit 4A - Pass Details

Date: 22 November 2019
Orbit: 870 x 975 km, 66.8° (Epoch: 08 December)

Event Time Altitude Azimuth Distance (km) Brightness Sun altitude
Exits shadow 02:19:26 11° 39° (NE) 2,520 10.6 -47.2°
Drops below altitude 10° 02:19:42 10° 41° (NE) 2,566 10.7 -47.1°
Sets 02:23:29 0° 65° (ENE) 3,486 11.6 -46.6°
